User: anonymous   Login
Location: Eschertshofen
(49.3064°N, 11.5756°E)
Time: 03:14:19
(UTC+00:00)
Language:

SJ-6B - Orbit

View from above orbital plane
View from above orbital plane
View from above satellite
View from above satellite

Ground track
Ground track

The orbit data is extracted from the following two-line orbital elements,

1 28415U 04035C   20332.85350430 +.00000755 +00000-0 +53253-4 0  9999
2 28415 097.5942 012.4640 0052214 153.7898 206.5990 15.06961036888248
Epoch (UTC): 27 November 2020 20:29:02
Eccentricity: 0.0052214
inclination: 97.5942°
perigee height: 509 km
apogee height: 581 km
right ascension of ascending node: 12.4640°
argument of perigee: 153.7898°
revolutions per day: 15.06961036
mean anomaly at epoch: 206.5990°
orbit number at epoch: 88824

The dashed part of the orbit path shows where the satellite is in the earth's shadow,  

DLR